Lapse_Rate
8.9 9.0 9.1 8.7 8.9 8.4 8.1 7.6 7.9 7.8 7.5 7.9 8.0 7.8 7.5 8.0 7.8 7.7 6.2 6.2 6.3 7.3 8.1 5.7 6.3 6.9 5.6 6.0 5.8 5.3 6.5 6.5 6.5 6.5 6.5 6.4 6.4 5.8 5.1 5.7 4.9 3.2 4.3 3.9 3.2
9.1 9.1 9.1 9.0 8.5 8.1 7.5 7.6 8.1 7.6 7.6 8.0 8.0 8.0 7.9 7.4 7.2 6.7 7.4 6.6 6.8 8.0 6.3 5.1 5.5 6.6 5.9 5.8 6.2 6.3 6.5 6.5 6.4 6.5 6.5 6.6 6.5 6.1 6.0 6.0 5.2 3.3 3.5 3.4 3.4
9.0 8.4 8.6 9.0 8.6 7.8 7.5 7.5 7.9 7.7 7.7 8.0 7.8 7.8 7.7 7.6 7.5 7.5 7.8 7.3 6.7 7.9 6.1 6.6 5.1 6.7 6.4 6.4 6.0 6.5 6.5 6.5 6.5 5.6 6.5 6.7 6.7 6.7 6.1 6.5 5.7 5.2 3.5 3.0 2.9
9.2 9.4 8.8 8.9 8.0 7.8 7.7 7.8 7.8 7.7 7.8 7.8 7.9 7.4 7.4 8.0 6.5 8.7 7.7 9.2 8.2 7.7 5.7 6.0 5.8 6.1 6.5 6.5 6.2 6.5 6.5 6.6 6.4 6.2 6.1 6.6 6.7 6.7 6.5 6.0 4.9 5.0 4.7 2.1 2.8
8.9 8.1 7.3 7.6 7.8 8.0 8.0 8.1 8.4 8.2 8.0 7.8 7.9 7.2 7.4 7.4 6.9 8.3 8.2 7.4 8.9 7.2 6.6 6.2 5.9 6.7 6.5 6.2 6.2 6.5 6.5 6.8 6.3 6.6 6.5 6.3 6.7 6.8 6.2 5.1 5.8 3.7 2.6 1.6 1.9
7.9 7.8 7.4 7.6 7.5 8.0 8.2 8.1 8.3 7.9 8.0 7.6 7.8 7.6 7.7 6.6 9.1 8.0 7.2 6.8 7.9 6.7 6.9 6.3 6.0 6.8 5.9 6.0 6.3 5.9 6.3 6.5 6.5 6.5 6.8 6.6 6.7 6.4 6.4 5.1 5.5 4.9 2.8 1.7 1.9
8.0 7.3 7.4 7.6 7.4 7.5 7.7 7.9 7.8 7.8 8.0 8.0 7.8 8.3 7.3 7.2 8.5 7.3 7.0 6.1 7.8 7.0 6.9 6.3 5.9 5.5 5.9 6.5 5.4 5.5 6.5 6.5 6.5 6.4 6.6 7.0 6.5 6.5 5.7 5.8 6.1 5.4 2.9 3.4 2.7
8.4 8.0 7.6 7.3 7.5 7.3 7.3 7.5 7.4 7.3 7.7 7.8 8.0 6.9 5.7 8.2 8.2 7.7 8.1 7.1 6.2 6.3 6.9 5.8 5.6 5.7 6.0 6.1 5.5 6.5 6.5 6.5 6.5 6.5 6.6 6.5 6.5 6.6 5.9 6.1 6.1 4.8 4.0 4.4 3.7
8.2 7.9 7.9 7.4 7.4 7.3 7.3 7.4 7.2 7.3 7.9 7.8 6.9 6.9 5.7 8.4 7.8 7.9 7.9 7.2 6.7 6.4 5.7 7.1 6.3 5.9 6.1 6.5 6.5 6.5 6.5 6.5 6.5 6.6 6.5 6.5 6.5 6.3 5.7 6.1 4.7 4.4 3.4 3.5 4.1
8.7 8.1 6.8 7.5 7.6 7.2 7.3 7.3 7.4 6.9 6.9 7.4 7.4 6.5 6.7 7.0 7.5 7.5 7.5 7.6 6.9 5.9 6.3 6.9 5.3 6.5 6.5 6.5 6.5 6.5 6.5 6.5 6.5 6.5 6.5 6.5 6.5 6.5 5.8 5.8 6.1 5.0 3.3 2.5 2.7
7.3 8.1 6.0 6.1 7.0 7.4 5.9 5.2 5.7 6.0 6.5 6.6 6.9 6.7 7.1 6.9 7.8 7.2 6.7 7.3 6.7 7.0 6.5 6.6 6.5 6.5 6.5 6.5 6.5 6.5 6.5 6.5 6.5 6.5 6.5 6.5 6.5 6.5 5.7 5.8 4.2 3.0 2.9 2.1 2.7
6.7 7.4 6.4 5.8 6.2 7.0 5.0 5.7 6.1 6.4 6.2 6.9 6.7 6.9 7.3 6.6 7.0 7.0 6.6 6.5 6.5 6.5 6.5 6.5 6.5 6.5 6.5 6.5 6.5 6.5 6.5 6.5 6.5 6.5 6.5 6.5 6.5 6.5 6.2 6.3 4.7 3.4 2.6 2.8 3.5
6.8 6.1 7.4 5.7 5.9 5.1 5.2 5.7 6.3 7.3 6.6 6.9 7.1 6.9 6.5 6.4 6.8 6.9 6.5 6.7 6.5 6.5 6.5 6.5 6.5 6.5 6.5 6.5 6.5 6.5 6.5 6.5 6.5 6.5 6.5 6.5 6.5 6.5 6.4 5.2 5.0 3.3 2.8 3.0 2.5
6.1 5.8 6.5 5.4 5.2 4.6 5.3 6.1 5.9 6.3 6.5 6.5 6.7 6.4 6.9 6.0 6.6 7.6 7.0 6.8 6.5 6.5 6.5 6.5 6.5 6.5 6.5 6.5 6.5 6.5 6.5 6.5 6.5 6.5 6.5 6.5 6.5 6.5 6.5 6.5 6.4 4.7 2.0 2.0 2.4
5.4 5.0 5.4 5.4 4.3 5.2 6.5 5.6 5.5 6.2 6.5 6.5 6.6 6.6 6.2 6.7 6.5 6.8 7.0 7.2 6.5 6.5 6.5 6.5 6.5 6.5 6.5 6.5 6.5 6.5 6.5 6.5 6.5 6.5 6.5 6.5 6.5 6.5 6.5 6.5 6.5 5.7 1.9 0.8 1.1
5.0 4.4 5.0 4.6 5.3 5.4 6.0 6.1 6.8 6.5 6.5 6.5 6.7 6.5 6.5 6.8 6.7 6.9 6.9 6.9 6.9 6.5 6.5 6.5 6.6 6.5 6.5 6.5 6.5 6.5 6.5 6.5 6.5 6.5 6.5 6.5 6.5 6.5 6.5 6.5 6.5 5.5 1.9 1.4 1.3
4.2 4.5 4.8 4.3 4.8 6.0 6.3 5.7 6.5 6.5 6.5 6.5 6.5 6.5 6.5 6.5 6.5 6.5 6.5 6.5 6.5 6.5 6.5 6.5 6.5 6.5 6.4 6.5 6.5 6.5 6.5 6.5 6.5 6.5 6.5 6.5 6.5 6.5 6.5 6.5 6.6 6.1 2.7 1.6 0.5
4.2 4.3 4.7 4.9 5.6 5.8 6.1 6.5 6.5 6.5 6.5 6.5 6.5 6.5 6.5 6.5 6.5 6.5 6.5 6.5 6.5 6.5 6.5 6.5 6.5 6.5 6.5 6.5 6.5 6.5 6.5 6.5 6.5 6.5 6.5 6.5 6.5 6.5 6.5 5.8 4.5 3.4 2.5 1.7 1.3
3.9 2.2 3.4 4.4 5.2 5.4 6.3 6.5 6.5 6.5 6.5 6.5 6.5 6.5 6.5 6.5 6.5 6.5 6.5 6.5 6.5 6.5 6.5 6.5 6.5 6.5 6.5 6.5 6.5 6.5 6.5 6.5 6.5 6.5 6.5 6.5 6.5 6.5 6.5 6.5 6.1 5.0 3.4 2.5 2.3
2.1 2.9 4.3 4.9 5.7 6.4 6.3 6.5 6.5 6.5 6.5 6.5 6.5 6.5 6.5 6.5 6.5 6.5 6.5 6.5 6.5 6.5 6.4 6.5 6.5 6.5 6.5 6.5 6.4 6.5 6.5 6.5 6.5 6.5 6.5 6.5 6.5 6.5 6.5 6.5 6.5 6.4 5.4 3.3 2.5
2.5 4.2 4.6 5.2 6.2 6.4 6.5 6.5 6.5 6.0 6.3 6.5 6.5 6.5 6.5 6.5 6.5 6.5 6.5 6.5 6.5 6.5 6.4 6.5 6.5 6.5 6.5 6.5 6.5 6.5 6.5 6.5 6.5 6.5 6.5 6.5 6.5 6.5 6.5 6.5 6.5 6.3 4.9 3.3 2.4
1.9 6.4 4.6 4.9 6.6 6.6 6.5 6.5 6.6 6.5 6.2 6.5 6.5 6.5 6.5 6.5 6.5 6.5 6.5 6.5 6.2 6.1 6.5 6.5 6.5 6.5 6.5 6.5 6.5 6.5 6.5 6.5 6.5 6.5 6.5 6.5 6.5 6.5 6.5 6.5 5.8 5.8 4.5 3.3 2.6
3.0 4.1 4.6 5.4 6.5 6.5 6.4 6.5 6.5 6.5 6.5 6.5 6.5 6.5 6.5 6.5 6.5 6.5 6.5 6.3 6.0 6.5 6.5 6.5 6.5 6.5 6.5 6.5 6.5 6.5 6.5 6.5 6.5 6.5 6.5 6.5 6.5 6.5 6.3 6.4 5.6 5.2 4.4 3.9 2.7
2.7 6.5 4.7 5.6 4.8 6.5 6.5 6.5 6.5 6.3 6.5 6.3 6.5 6.4 6.5 6.5 6.5 6.5 6.5 6.5 6.1 6.4 6.5 6.3 6.5 6.5 6.5 6.5 6.5 6.5 6.5 6.5 6.5 6.5 6.5 6.5 6.5 6.5 6.5 6.5 6.1 5.0 4.3 2.9 2.3
2.4 6.4 6.4 6.5 6.5 6.5 6.5 6.5 6.5 6.5 6.0 5.8 6.5 6.5 6.5 6.5 6.5 6.5 6.5 6.5 6.4 6.5 6.2 6.5 6.5 6.5 6.5 6.5 6.5 6.5 6.5 6.5 6.5 6.5 6.5 6.5 6.5 6.5 6.5 6.5 5.0 4.1 3.2 2.8 2.6
3.5 5.0 4.6 5.7 6.3 6.5 6.5 6.5 6.5 6.5 6.5 6.5 6.5 6.5 6.5 6.5 6.5 6.5 6.5 6.5 6.5 6.5 6.5 6.5 6.5 6.5 6.5 6.5 6.5 6.5 6.5 6.5 6.5 6.5 6.5 6.5 6.5 6.5 5.5 4.7 4.6 4.1 3.5 3.5 2.9
1.2 2.7 4.6 6.2 6.5 6.5 6.5 6.5 6.5 6.5 6.4 6.2 6.5 6.5 6.5 6.5 6.2 6.2 5.6 5.3 6.1 6.5 6.5 6.5 6.5 6.5 6.5 6.5 6.5 6.5 6.5 6.5 6.5 6.5 6.5 6.5 6.5 6.5 6.5 6.4 5.7 3.3 2.2 2.5 1.8
Wind_Speed
26 25 24 23 21 18 17 14 10 8 6 7 8 10 8 10 11 9 8 6 9 9 8 4 3 2 1 5 3 2 4 13 11 7 4 4 8 9 11 4 6 4 3 5 9
26 25 23 21 20 15 10 9 8 7 5 5 7 8 7 7 3 8 6 10 17 11 3 10 7 5 3 5 5 4 7 14 10 1 1 3 7 8 8 16 4 2 6 9 11
23 24 23 20 19 15 11 7 7 6 5 5 6 7 8 7 2 5 17 20 17 16 4 4 6 6 5 2 4 5 15 4 6 4 3 7 6 6 6 8 4 12 10 5 9
21 21 20 19 19 15 12 10 8 5 4 4 4 8 6 2 7 5 3 11 22 17 6 7 7 7 8 8 5 9 6 12 5 6 2 5 9 10 3 8 14 14 9 6 10
20 19 18 17 16 15 12 10 9 5 6 5 1 8 3 2 4 7 16 17 11 15 12 7 7 10 14 5 5 4 15 12 12 10 5 5 5 7 16 20 18 10 6 7 8
18 18 17 16 15 15 12 9 8 6 6 6 6 3 2 3 4 12 16 9 10 15 17 7 8 9 5 7 8 8 9 11 8 6 6 4 3 5 14 7 16 5 6 6 6
15 16 17 16 14 13 12 9 6 4 4 4 3 3 0 5 5 14 9 4 14 15 13 6 6 5 4 6 5 5 7 6 9 9 5 6 4 7 23 16 15 8 8 6 7
20 14 15 15 13 12 12 10 7 6 4 2 1 1 3 4 8 7 6 4 7 4 8 6 7 3 2 3 4 6 4 5 9 14 6 11 7 15 18 10 17 9 8 6 6
16 18 16 14 13 11 11 9 6 7 4 2 2 1 5 4 1 4 4 4 7 4 1 6 7 3 2 7 5 2 7 6 9 19 9 11 4 9 13 10 10 8 8 7 5
18 16 16 16 13 12 13 2 4 4 3 2 3 1 3 4 2 2 4 6 1 8 9 10 4 4 2 6 15 15 6 9 8 13 12 13 2 5 4 12 13 11 8 8 7
18 17 16 14 15 13 4 2 3 2 2 2 1 2 4 6 1 4 4 2 3 7 3 7 5 12 6 3 1 6 4 8 3 8 10 16 6 10 11 14 10 9 9 9 8
19 18 15 15 13 14 3 2 2 2 2 1 4 2 2 3 2 3 3 4 3 4 6 2 10 6 7 3 5 8 5 4 2 3 10 7 10 11 9 14 11 9 8 9 5
19 18 15 14 12 4 2 4 1 2 1 2 1 1 2 3 2 2 3 4 3 6 12 3 6 8 6 3 5 3 7 4 4 4 3 5 4 10 10 7 8 7 7 5 9
21 19 17 11 3 0 2 3 3 2 2 1 3 1 2 3 3 2 3 1 5 8 6 1 3 9 7 5 4 3 2 4 5 5 4 5 4 7 9 13 9 13 9 9 8
21 20 15 7 1 2 1 6 3 2 1 3 3 1 1 3 4 3 4 2 2 11 4 1 1 8 5 5 5 2 4 4 2 3 3 2 1 5 3 7 16 13 9 9 9
23 19 9 1 1 3 7 4 1 4 2 2 2 2 5 2 2 3 2 1 3 7 4 1 2 3 3 3 5 6 6 7 4 3 3 4 5 5 5 6 5 7 8 9 9
26 18 4 6 2 9 5 2 2 4 0 4 3 5 5 4 4 4 6 4 3 6 2 3 3 2 2 7 2 3 5 2 2 1 4 3 4 14 5 5 6 8 9 9 9
23 3 7 3 4 8 2 2 6 2 1 3 3 7 4 6 3 4 7 2 1 4 5 4 5 3 1 2 5 5 6 5 5 4 3 1 7 6 5 6 7 8 6 6 8
9 2 3 2 8 2 2 3 6 5 2 2 11 4 3 6 5 6 9 8 4 4 2 4 3 1 2 1 3 4 3 3 6 3 3 4 7 8 7 7 4 7 8 9 8
1 2 1 3 6 2 3 3 1 3 2 1 2 4 3 6 7 4 6 5 4 3 3 4 5 3 1 1 4 3 5 3 3 4 4 4 5 6 5 8 5 7 10 7 7
1 3 2 7 2 2 2 4 4 4 2 1 3 3 6 4 3 5 6 1 4 5 4 3 3 2 2 3 5 2 1 3 4 4 4 1 5 6 6 8 8 8 8 8 8
1 3 1 2 2 1 1 3 2 2 1 2 1 3 2 3 5 4 7 4 7 7 7 3 4 2 3 1 2 1 4 5 4 4 2 2 6 2 6 7 7 7 7 7 7
2 1 1 1 2 2 4 3 2 4 3 3 3 3 2 2 4 2 3 2 9 6 7 6 2 4 4 1 2 5 5 3 3 3 6 4 5 2 4 1 4 7 7 7 6
2 1 2 2 2 1 3 3 2 3 3 3 2 3 2 3 5 3 3 3 2 0 4 3 3 5 6 4 4 8 12 10 6 4 6 12 7 5 4 2 5 7 8 7 7
3 1 1 1 1 2 1 5 3 2 5 5 3 4 1 2 2 3 3 3 3 5 4 3 5 4 4 3 4 5 9 19 17 19 10 10 12 9 6 7 9 7 5 6 8
2 2 2 2 2 1 5 5 6 4 6 4 3 5 3 4 2 5 4 3 3 2 3 1 2 2 3 2 4 4 8 15 20 19 18 10 15 6 5 5 7 9 10 9 8
2 2 0 4 4 1 2 2 4 4 3 4 6 2 4 2 3 2 2 2 5 7 3 3 4 2 3 4 4 6 12 14 10 11 17 12 27 4 5 7 10 9 10 12 10
Wind_Direction
345 339 334 331 329 322 313 294 315 306 282 274 272 272 271 267 224 206 223 218 210 244 207 126 173 148 86 153 158 61 175 214 197 191 205 82 22 342 314 324 327 341 124 125 124
2 355 354 352 346 342 350 345 342 335 331 306 286 262 263 170 172 246 229 219 237 238 126 159 173 147 177 156 140 144 208 222 203 189 2 341 64 337 357 327 337 46 54 85 128
7 12 18 18 19 21 29 25 4 351 330 318 309 273 191 144 93 256 228 235 240 235 183 151 131 181 189 154 173 164 210 158 190 168 15 331 3 356 7 331 71 336 153 117 134
6 9 7 10 13 10 16 11 0 2 3 344 327 123 140 200 196 85 139 268 226 223 176 149 147 197 173 189 184 171 216 170 151 135 253 313 348 330 318 252 307 298 278 144 159
0 7 6 10 12 17 22 24 16 30 34 27 90 131 95 219 260 301 334 314 238 209 191 156 166 188 193 172 135 199 173 167 124 137 90 59 297 324 292 292 304 251 209 204 161
356 1 7 9 11 8 9 9 17 36 39 53 86 154 176 223 267 325 329 296 201 192 199 159 189 184 155 167 172 181 162 147 154 153 161 219 280 36 282 279 322 295 205 207 179
359 352 358 360 7 11 359 4 8 17 38 61 96 60 110 249 328 329 311 318 162 185 195 186 181 163 135 128 175 159 122 103 161 171 201 188 188 220 270 280 302 313 257 223 195
340 352 351 348 354 7 9 343 329 334 3 13 21 331 265 253 314 298 317 43 62 88 234 192 159 147 117 104 59 119 113 162 190 165 183 162 224 210 255 275 277 276 275 238 217
340 339 346 342 339 347 346 342 302 307 330 2 29 61 304 304 156 312 319 75 121 105 146 197 122 147 48 121 81 156 185 169 160 186 153 186 219 200 208 244 258 256 263 261 220
339 337 335 337 334 334 336 344 347 321 321 259 258 339 344 318 283 303 41 48 194 154 173 186 108 129 134 167 183 185 184 181 165 183 168 195 198 153 284 288 263 262 243 254 262
338 337 332 332 326 332 10 30 26 329 21 247 7 316 322 309 17 42 37 13 355 182 17 168 151 188 174 75 56 117 92 159 145 184 168 195 209 158 194 262 284 264 237 230 245
336 334 332 324 316 323 112 107 157 191 334 243 263 274 268 343 81 7 46 53 7 86 99 78 189 157 149 183 115 132 111 151 127 130 179 190 222 219 212 217 224 233 249 232 209
335 330 330 319 312 338 149 158 308 139 338 332 262 34 321 343 74 104 56 47 354 115 130 46 188 149 142 163 100 50 154 165 158 97 72 122 258 231 235 233 244 237 229 230 207
331 330 324 313 312 240 266 170 99 60 54 124 147 51 350 324 57 35 62 162 205 136 114 172 154 128 140 174 114 71 159 133 112 120 199 161 263 246 221 229 231 240 218 224 196
330 328 318 260 196 144 199 137 101 86 143 131 109 309 324 30 148 30 122 243 185 113 123 169 124 146 147 178 122 173 140 141 101 100 126 249 143 252 198 232 236 236 229 214 196
326 321 311 174 172 243 138 111 77 50 328 145 67 121 122 85 31 120 157 179 342 82 64 77 324 94 153 118 154 140 84 52 54 85 300 188 165 254 209 215 241 242 222 194 185
326 315 202 156 210 154 137 94 23 87 1 154 133 142 115 143 131 165 172 167 137 131 163 46 48 51 53 111 79 103 87 68 30 337 227 339 172 247 253 241 223 243 229 191 174
333 43 170 177 153 130 127 64 69 256 247 146 118 119 136 167 95 139 165 167 71 104 133 171 156 156 339 130 161 164 179 151 179 196 207 48 230 248 252 271 236 240 201 165 160
341 28 116 232 150 105 84 53 200 203 230 67 143 162 150 162 147 168 182 178 152 160 145 123 63 14 23 120 104 170 173 175 106 16 51 222 286 292 282 280 246 184 153 167 164
119 104 19 153 138 70 80 253 228 217 247 164 30 153 125 128 144 175 175 186 144 138 128 179 108 353 347 209 57 126 163 82 6 130 237 262 276 244 283 255 236 204 176 173 159
51 78 303 125 94 93 169 228 264 235 228 325 16 59 119 157 122 161 175 239 163 169 166 141 80 121 71 202 166 139 160 68 127 157 182 239 254 217 252 263 224 196 179 172 172
65 81 277 134 201 66 255 208 294 336 181 310 331 55 82 118 139 175 177 224 168 152 160 172 95 141 185 39 346 143 213 176 145 234 228 150 266 235 263 274 195 183 173 171 171
78 133 3 282 76 332 298 319 332 7 3 17 31 32 22 91 97 115 123 323 156 156 163 179 131 121 174 132 302 225 194 225 128 81 198 183 257 293 357 50 188 163 165 176 158
93 87 344 220 204 177 2 328 334 358 328 358 348 38 52 55 31 129 100 90 188 280 88 103 140 162 187 208 139 204 210 204 191 185 210 234 273 307 319 243 208 189 177 174 165
30 78 178 299 8 3 1 345 278 19 355 21 34 20 55 94 67 103 109 111 105 142 112 161 198 164 234 230 168 207 210 211 213 223 208 259 221 227 223 216 215 193 160 155 169
90 61 339 235 250 254 10 9 28 13 21 350 45 19 41 94 63 185 131 164 171 96 111 35 166 110 306 250 217 245 230 216 223 232 244 254 272 220 264 205 174 189 171 186 194
345 337 107 336 334 48 40 17 24 344 61 55 339 70 52 23 305 291 246 215 165 146 131 102 125 84 268 334 318 291 230 211 222 220 222 222 243 147 229 211 205 193 183 193 193